Regional Weather Roundup
Issued by NWS

Home | Current Version | Previous Version | Graphics & Text | Print | Product List | Glossary On
Versions: 1 2 3 4 5 6 7 8 9 10 11 12 13 14 15 16 17 18 19 20 21 22 23 24 25 26 27 28 29 30 31 32 33 34 35 36 37 38 39 40 41 42 43 44 45 46 47 48 49 50
065
ASUS43 KFSD 290402
RWRSD

WEATHER ROUNDUP FOR SOUTH DAKOTA
NATIONAL WEATHER SERVICE SIOUX FALLS SD
1100 PM CDT THU JUL 28 2016

NOTE: "FAIR" INDICATES FEW OR NO CLOUDS BELOW 12,000 FEET WITH NO
SIGNIFICANT WEATHER AND/OR OBSTRUCTIONS TO VISIBILITY.


SDZ001>005-009-010-012>017-290500-
NORTHWEST AND NORTH CENTRAL SOUTH DAKOTA

CITY           SKY/WX    TMP DP  RH WIND       PRES   REMARKS
BUFFALO          N/A     63  61  93 E5        30.10R
FAITH            N/A     62  60  93 N3        30.14R
MOBRIDGE       CLOUDY    68  56  65 N8        30.08R
$$

SDZ012>016-024>037-041>051-057-063-072>074-290500-
SOUTHWEST AND SOUTH CENTRAL SOUTH DAKOTA

CITY           SKY/WX    TMP DP  RH WIND       PRES   REMARKS
RAPID CTY ARPT MOCLDY    61  56  83 E7        30.16R
PIERRE         CLOUDY    65  63  93 CALM      30.08R
CUSTER         CLOUDY    57  52  83 NE3       30.26R
PHILIP         CLOUDY    63  62  97 CALM      30.13R
PINE RIDGE     CLEAR     60  58  92 E7        30.15R
WINNER         LGT RAIN  64  61  90 S3        30.11S
$$

SDZ004>011-016>023-039-040-290500-
NORTHEAST SOUTH DAKOTA

CITY           SKY/WX    TMP DP  RH WIND       PRES   REMARKS
ABERDEEN       CLEAR     65  60  84 CALM      30.08R
WATERTOWN      CLOUDY    67  56  67 E3        30.10R
BROOKINGS      CLEAR     64  55  72 E3        30.09R
SISSETON         N/A     68  64  87 CALM      30.07R
$$

SDZ017-020-022-023-036>040-048>070-290500-
SOUTHEAST SOUTH DAKOTA

CITY           SKY/WX    TMP DP  RH WIND       PRES   REMARKS
SIOUX FALLS    PTCLDY    61  56  83 N3        30.07R
HURON          CLOUDY    68  56  65 SE6       30.08R
CHAMBERLAIN    CLOUDY    70  65  84 CALM      30.09S
MITCHELL       CLOUDY    69  61  75 E3        30.08R
YANKTON        PTCLDY    68  59  73 NE7       30.06R
$$

ABBREVIATIONS USED IN REMARKS
   TC - TEMPERATURE IN CELSIUS
  WCI - WIND CHILL INDEX
   HX - HEAT INDEX
  VSB - VISIBILITY





USA.gov is the U.S. government's official web portal to all federal, state and local government web resources and services.